RYR9YW LIPR-EPKK

Flight info

Callsign RYR9YW
Flight time 1h 19m
Altitude 39000
Route AMLON DCT BAXON DCT KOPRY DCT ALAMU DCT MEBAN
Aircraft B38M/M-SDE1FGHILORVWXY/HB1

Departure

Time 2026-04-17 21:03
Airport Federico Fellini International Airport (LIPR)

Arrival

Time 2026-04-17 22:23
Airport Kraków John Paul II International Airport (EPKK)
Time Latitude Longitude Altitude Speed Heading
2026-04-17 20:55 44.02172 12.61802 44 ft 0 kts 131°
2026-04-17 20:55 44.02171 12.61804 44 ft 2 kts 131°
2026-04-17 20:56 44.02152 12.61834 44 ft 7 kts 129°
2026-04-17 20:56 44.02112 12.61894 44 ft 9 kts 157°
2026-04-17 20:56 44.02091 12.61892 44 ft 1 kts 223°
2026-04-17 20:56 44.02071 12.61866 44 ft 6 kts 220°
2026-04-17 20:57 44.02024 12.61812 46 ft 10 kts 219°
2026-04-17 20:57 44.01965 12.61765 49 ft 10 kts 182°
2026-04-17 20:57 44.01908 12.61826 51 ft 12 kts 128°
2026-04-17 20:57 44.01850 12.61930 52 ft 16 kts 128°
2026-04-17 20:58 44.01771 12.62071 52 ft 21 kts 128°
2026-04-17 20:58 44.01673 12.62247 48 ft 26 kts 128°
2026-04-17 20:58 44.01553 12.62461 49 ft 29 kts 127°
2026-04-17 20:58 44.01469 12.62517 48 ft 12 kts 204°
2026-04-17 20:59 44.01443 12.62490 48 ft 0 kts 219°
2026-04-17 21:02 44.01438 12.62485 46 ft 4 kts 219°
2026-04-17 21:02 44.01399 12.62440 46 ft 11 kts 219°
2026-04-17 21:02 44.01361 12.62362 46 ft 6 kts 279°
2026-04-17 21:02 44.01375 12.62337 45 ft 3 kts 327°
2026-04-17 21:03 44.01413 12.62276 47 ft 19 kts 308°
2026-04-17 21:03 44.01675 12.61807 51 ft 102 kts 308°
2026-04-17 21:03 44.02246 12.60778 94 ft 160 kts 307°
2026-04-17 21:03 44.02903 12.59569 924 ft 152 kts 302°
2026-04-17 21:04 44.03381 12.58291 1818 ft 151 kts 299°
2026-04-17 21:04 44.03941 12.56951 2546 ft 170 kts 302°
2026-04-17 21:04 44.04530 12.55417 3251 ft 194 kts 300°
2026-04-17 21:04 44.05189 12.53626 3977 ft 220 kts 299°
2026-04-17 21:05 44.05900 12.51628 4865 ft 241 kts 298°
2026-04-17 21:05 44.06658 12.49477 5732 ft 260 kts 300°
2026-04-17 21:05 44.07847 12.47514 6560 ft 275 kts 329°
2026-04-17 21:05 44.09640 12.46793 7677 ft 267 kts
2026-04-17 21:06 44.11359 12.47592 8937 ft 263 kts 37°
2026-04-17 21:06 44.12464 12.49607 10128 ft 269 kts 68°
2026-04-17 21:06 44.12911 12.52188 10973 ft 286 kts 75°
2026-04-17 21:06 44.13531 12.54903 11649 ft 303 kts 62°
2026-04-17 21:07 44.14522 12.57586 12458 ft 319 kts 63°
2026-04-17 21:07 44.15009 12.60656 13401 ft 335 kts 88°
2026-04-17 21:07 44.14750 12.63919 14450 ft 344 kts 95°
2026-04-17 21:07 44.14614 12.67263 15419 ft 346 kts 80°
2026-04-17 21:08 44.15416 12.70331 16472 ft 344 kts 56°
2026-04-17 21:08 44.16731 12.73147 17443 ft 351 kts 56°
2026-04-17 21:08 44.17818 12.76237 18415 ft 358 kts 64°
2026-04-17 21:08 44.18870 12.79406 19274 ft 363 kts 62°
2026-04-17 21:09 44.19965 12.82602 20107 ft 368 kts 62°
2026-04-17 21:09 44.21078 12.85841 20941 ft 373 kts 62°
2026-04-17 21:09 44.22208 12.89127 21767 ft 378 kts 62°
2026-04-17 21:09 44.23350 12.92454 22575 ft 383 kts 62°
2026-04-17 21:10 44.24498 12.95804 23369 ft 389 kts 62°
2026-04-17 21:10 44.25643 12.99148 24061 ft 393 kts 62°
2026-04-17 21:10 44.26757 13.02408 24687 ft 397 kts 62°
2026-04-17 21:10 44.27948 13.05897 25347 ft 401 kts 62°
2026-04-17 21:11 44.29138 13.09386 25998 ft 405 kts 62°
2026-04-17 21:11 44.30352 13.12952 26635 ft 409 kts 61°
2026-04-17 21:11 44.31575 13.16549 27276 ft 412 kts 61°
2026-04-17 21:11 44.32813 13.20191 27905 ft 416 kts 61°
2026-04-17 21:12 44.34058 13.23864 28517 ft 420 kts 61°
2026-04-17 21:12 44.35311 13.27561 29115 ft 424 kts 61°
2026-04-17 21:12 44.36573 13.31293 29703 ft 427 kts 61°
2026-04-17 21:12 44.37849 13.35070 30269 ft 431 kts 61°
2026-04-17 21:13 44.39135 13.38883 30726 ft 435 kts 61°
2026-04-17 21:13 44.40435 13.42740 31046 ft 440 kts 60°
2026-04-17 21:13 44.41760 13.46592 31549 ft 439 kts 59°
2026-04-17 21:13 44.43280 13.50285 32052 ft 439 kts 52°
2026-04-17 21:14 44.45250 13.53525 32462 ft 437 kts 41°
2026-04-17 21:14 44.47435 13.56507 32911 ft 440 kts 41°
2026-04-17 21:14 44.49537 13.59646 33364 ft 446 kts 46°
2026-04-17 21:14 44.51365 13.63201 33883 ft 452 kts 54°
2026-04-17 21:15 44.53001 13.66960 34441 ft 450 kts 54°
2026-04-17 21:15 44.54737 13.70534 34958 ft 447 kts 49°
2026-04-17 21:15 44.56698 13.73896 35466 ft 446 kts 47°
2026-04-17 21:15 44.58646 13.77297 35960 ft 447 kts 48°
2026-04-17 21:16 44.60572 13.80737 36457 ft 447 kts 48°
2026-04-17 21:16 44.62479 13.84189 36932 ft 448 kts 49°
2026-04-17 21:16 44.64391 13.87680 37405 ft 448 kts 49°
2026-04-17 21:16 44.66285 13.91155 37866 ft 448 kts 49°
2026-04-17 21:17 44.68177 13.94629 38314 ft 449 kts 49°
2026-04-17 21:17 44.70076 13.98119 38744 ft 449 kts 49°
2026-04-17 21:17 44.71952 14.01569 39038 ft 451 kts 49°
2026-04-17 21:17 44.73866 14.05096 39130 ft 452 kts 49°
2026-04-17 21:18 44.77661 14.12100 39123 ft 450 kts 49°
2026-04-17 21:18 44.81457 14.19121 39120 ft 450 kts 49°
2026-04-17 21:19 44.85247 14.26151 39116 ft 450 kts 49°
2026-04-17 21:19 44.89032 14.33188 39114 ft 450 kts 49°
2026-04-17 21:20 44.92821 14.40248 39109 ft 451 kts 49°
2026-04-17 21:20 44.96600 14.47309 39117 ft 451 kts 49°
2026-04-17 21:21 45.00358 14.54346 39122 ft 451 kts 49°
2026-04-17 21:21 45.04134 14.61436 39127 ft 451 kts 49°
2026-04-17 21:22 45.07900 14.68525 39134 ft 451 kts 49°
2026-04-17 21:22 45.11664 14.75628 39131 ft 451 kts 49°
2026-04-17 21:23 45.15428 14.82747 39132 ft 451 kts 49°
2026-04-17 21:23 45.19190 14.89880 39138 ft 452 kts 49°
2026-04-17 21:24 45.22931 14.96993 39141 ft 452 kts 49°
2026-04-17 21:24 45.26690 15.04156 39148 ft 453 kts 49°
2026-04-17 21:25 45.30450 15.11340 39142 ft 453 kts 49°
2026-04-17 21:25 45.34216 15.18554 39148 ft 454 kts 49°
2026-04-17 21:26 45.37968 15.25761 39153 ft 453 kts 49°
2026-04-17 21:26 45.41721 15.32985 39148 ft 453 kts 49°
2026-04-17 21:27 45.45463 15.40207 39147 ft 453 kts 49°
2026-04-17 21:27 45.49194 15.47428 39147 ft 453 kts 49°
2026-04-17 21:28 45.52922 15.54660 39145 ft 452 kts 49°
2026-04-17 21:28 45.56014 15.60672 39149 ft 452 kts 49°
2026-04-17 21:29 45.59731 15.67916 39150 ft 451 kts 49°
2026-04-17 21:29 45.63437 15.75159 39152 ft 451 kts 49°
2026-04-17 21:30 45.67137 15.82408 39155 ft 451 kts 49°
2026-04-17 21:30 45.70836 15.89673 39157 ft 451 kts 49°
2026-04-17 21:31 45.74502 15.96891 39167 ft 451 kts 49°
2026-04-17 21:31 45.78195 16.04181 39165 ft 451 kts 49°
2026-04-17 21:32 45.81878 16.11472 39160 ft 452 kts 49°
2026-04-17 21:32 45.85565 16.18788 39163 ft 452 kts 49°
2026-04-17 21:33 45.89240 16.26100 39161 ft 452 kts 49°
2026-04-17 21:33 45.92916 16.33432 39150 ft 452 kts 49°
2026-04-17 21:34 45.96585 16.40769 39155 ft 452 kts 49°
2026-04-17 21:35 46.02080 16.51795 39147 ft 452 kts 49°
2026-04-17 21:35 46.05741 16.59165 39151 ft 452 kts 49°
2026-04-17 21:36 46.09373 16.66490 39150 ft 452 kts 49°
2026-04-17 21:36 46.13027 16.73877 39149 ft 452 kts 49°
2026-04-17 21:37 46.16672 16.81266 39148 ft 452 kts 49°
2026-04-17 21:37 46.20313 16.88667 39151 ft 452 kts 49°
2026-04-17 21:38 46.24102 16.95868 39138 ft 445 kts 38°
2026-04-17 21:38 46.26539 16.98454 39155 ft 434 kts 25°
2026-04-17 21:38 46.29186 17.00575 39149 ft 436 kts 26°
2026-04-17 21:39 46.34336 17.05258 39154 ft 437 kts 27°
2026-04-17 21:39 46.39504 17.09894 39154 ft 437 kts 27°
2026-04-17 21:40 46.44679 17.14506 39154 ft 437 kts 27°
2026-04-17 21:40 46.49858 17.19132 39156 ft 437 kts 27°
2026-04-17 21:41 46.55031 17.23764 39154 ft 437 kts 27°
2026-04-17 21:41 46.60177 17.28382 39157 ft 437 kts 27°
2026-04-17 21:42 46.65349 17.33034 39158 ft 437 kts 27°
2026-04-17 21:42 46.70527 17.37702 39158 ft 438 kts 27°
2026-04-17 21:43 46.75711 17.42386 39157 ft 438 kts 27°
2026-04-17 21:43 46.80910 17.47094 39155 ft 439 kts 27°
2026-04-17 21:44 46.86108 17.51813 39153 ft 439 kts 27°
2026-04-17 21:44 46.91267 17.56506 39154 ft 440 kts 27°
2026-04-17 21:45 46.96466 17.61248 39152 ft 440 kts 28°
2026-04-17 21:45 47.01662 17.65997 39156 ft 440 kts 28°
2026-04-17 21:46 47.06848 17.70748 39161 ft 440 kts 28°
2026-04-17 21:46 47.12041 17.75517 39165 ft 439 kts 28°
2026-04-17 21:47 47.17199 17.80261 39156 ft 439 kts 27°
2026-04-17 21:47 47.19696 17.82561 38967 ft 438 kts 27°
2026-04-17 21:47 47.22258 17.84927 38691 ft 436 kts 27°
2026-04-17 21:47 47.24829 17.87305 38374 ft 435 kts 27°
2026-04-17 21:48 47.27385 17.89670 38058 ft 433 kts 27°
2026-04-17 21:48 47.29937 17.92034 37759 ft 432 kts 27°
2026-04-17 21:48 47.32465 17.94380 37457 ft 430 kts 27°
2026-04-17 21:48 47.34997 17.96731 37166 ft 429 kts 27°
2026-04-17 21:49 47.37516 17.99072 36870 ft 428 kts 27°
2026-04-17 21:49 47.40029 18.01411 36513 ft 426 kts 27°
2026-04-17 21:49 47.42532 18.03742 36173 ft 424 kts 27°
2026-04-17 21:49 47.44999 18.06045 35831 ft 423 kts 27°
2026-04-17 21:50 47.47487 18.08368 35499 ft 422 kts 27°
2026-04-17 21:50 47.49970 18.10689 35163 ft 420 kts 27°
2026-04-17 21:50 47.52435 18.12996 34833 ft 419 kts 27°
2026-04-17 21:50 47.54898 18.15304 34515 ft 418 kts 27°
2026-04-17 21:51 47.57355 18.17609 34194 ft 417 kts 27°
2026-04-17 21:51 47.59803 18.19907 33820 ft 416 kts 27°
2026-04-17 21:51 47.62248 18.22204 33439 ft 416 kts 27°
2026-04-17 21:51 47.64698 18.24509 33170 ft 417 kts 28°
2026-04-17 21:52 47.67161 18.26829 33145 ft 421 kts 28°
2026-04-17 21:52 47.72112 18.31498 33155 ft 425 kts 28°
2026-04-17 21:53 47.77258 18.35551 33160 ft 413 kts 21°
2026-04-17 21:53 47.82438 18.39243 33161 ft 412 kts 22°
2026-04-17 21:54 47.87603 18.43047 33162 ft 413 kts 22°
2026-04-17 21:54 47.92720 18.46857 33159 ft 414 kts 22°
2026-04-17 21:55 47.97870 18.50699 33162 ft 414 kts 23°
2026-04-17 21:55 48.03036 18.54562 33163 ft 414 kts 23°
2026-04-17 21:56 48.08197 18.58430 33169 ft 415 kts 23°
2026-04-17 21:56 48.13393 18.62331 33166 ft 423 kts 23°
2026-04-17 21:57 48.18677 18.66310 33174 ft 426 kts 23°
2026-04-17 21:57 48.23968 18.70303 33167 ft 426 kts 23°
2026-04-17 21:58 48.29230 18.74282 33169 ft 426 kts 23°
2026-04-17 21:58 48.34521 18.78294 33176 ft 426 kts 23°
2026-04-17 21:59 48.39824 18.82323 33185 ft 426 kts 23°
2026-04-17 21:59 48.45108 18.86348 33185 ft 427 kts 24°
2026-04-17 22:00 48.50391 18.90381 33180 ft 426 kts 24°
2026-04-17 22:00 48.55680 18.94429 33190 ft 427 kts 24°
2026-04-17 22:01 48.60976 18.98492 33178 ft 427 kts 24°
2026-04-17 22:01 48.66274 19.02565 33190 ft 427 kts 24°
2026-04-17 22:02 48.71568 19.06645 33196 ft 426 kts 24°
2026-04-17 22:02 48.76822 19.10704 33191 ft 427 kts 24°
2026-04-17 22:03 48.82118 19.14805 33194 ft 427 kts 24°
2026-04-17 22:03 48.87415 19.18917 33201 ft 428 kts 24°
2026-04-17 22:04 48.92716 19.23041 33199 ft 429 kts 24°
2026-04-17 22:04 48.98033 19.27188 33200 ft 429 kts 24°
2026-04-17 22:05 49.03256 19.31275 32613 ft 415 kts 24°
2026-04-17 22:05 49.05815 19.33278 31697 ft 416 kts 24°
2026-04-17 22:05 49.08398 19.35301 30747 ft 418 kts 24°
2026-04-17 22:05 49.10987 19.37332 29641 ft 421 kts 24°
2026-04-17 22:06 49.13594 19.39381 28577 ft 421 kts 24°
2026-04-17 22:06 49.16200 19.41432 27366 ft 424 kts 25°
2026-04-17 22:06 49.18815 19.43492 26521 ft 420 kts 25°
2026-04-17 22:06 49.21400 19.45531 25758 ft 415 kts 25°
2026-04-17 22:07 49.23961 19.47554 25039 ft 411 kts 25°
2026-04-17 22:07 49.26480 19.49546 24356 ft 406 kts 25°
2026-04-17 22:07 49.28976 19.51521 23649 ft 402 kts 25°
2026-04-17 22:07 49.31450 19.53481 22849 ft 399 kts 25°
2026-04-17 22:08 49.33900 19.55423 22079 ft 395 kts 25°
2026-04-17 22:08 49.36346 19.57363 21140 ft 395 kts 25°
2026-04-17 22:08 49.38777 19.59296 20341 ft 393 kts 25°
2026-04-17 22:08 49.41173 19.61200 19490 ft 393 kts 25°
2026-04-17 22:09 49.43573 19.63112 18719 ft 391 kts 26°
2026-04-17 22:09 49.45961 19.65063 17933 ft 387 kts 28°
2026-04-17 22:09 49.48200 19.67428 16946 ft 389 kts 33°
2026-04-17 22:09 49.50439 19.69726 16206 ft 384 kts 31°
2026-04-17 22:10 49.52666 19.71954 15471 ft 377 kts 31°
2026-04-17 22:10 49.54834 19.74112 14597 ft 366 kts 31°
2026-04-17 22:10 49.56953 19.76216 13628 ft 357 kts 31°
2026-04-17 22:10 49.59005 19.78255 12925 ft 340 kts 31°
2026-04-17 22:11 49.60939 19.80181 12514 ft 324 kts 31°
2026-04-17 22:11 49.62811 19.82044 12163 ft 317 kts 31°
2026-04-17 22:11 49.64644 19.83871 11969 ft 312 kts 31°
2026-04-17 22:11 49.66460 19.85682 11719 ft 311 kts 31°
2026-04-17 22:12 49.67657 19.86877 11498 ft 308 kts 31°
2026-04-17 22:12 49.70007 19.89226 11144 ft 298 kts 31°
2026-04-17 22:12 49.71720 19.90941 10938 ft 288 kts 31°
2026-04-17 22:12 49.73364 19.92587 10782 ft 279 kts 31°
2026-04-17 22:13 49.74436 19.93661 10673 ft 273 kts 31°
2026-04-17 22:13 49.76012 19.95240 10517 ft 268 kts 31°
2026-04-17 22:13 49.77570 19.96803 10365 ft 266 kts 31°
2026-04-17 22:13 49.79122 19.98361 10218 ft 265 kts 31°
2026-04-17 22:14 49.80672 19.99916 10073 ft 265 kts 30°
2026-04-17 22:14 49.82298 20.01194 9750 ft 261 kts 15°
2026-04-17 22:14 49.84072 20.01629 9346 ft 260 kts
2026-04-17 22:14 49.85827 20.02014 9099 ft 250 kts
2026-04-17 22:15 49.87507 20.02444 8833 ft 242 kts
2026-04-17 22:15 49.89142 20.02872 8694 ft 233 kts
2026-04-17 22:15 49.90727 20.03294 8411 ft 231 kts
2026-04-17 22:15 49.92305 20.03720 8119 ft 230 kts
2026-04-17 22:16 49.93865 20.04143 7805 ft 230 kts
2026-04-17 22:16 49.95440 20.04572 7512 ft 229 kts
2026-04-17 22:16 49.97008 20.05000 7226 ft 228 kts
2026-04-17 22:16 49.98567 20.05426 6924 ft 228 kts
2026-04-17 22:17 50.00141 20.05856 6471 ft 231 kts
2026-04-17 22:17 50.01735 20.06293 5977 ft 232 kts
2026-04-17 22:17 50.03297 20.06721 5639 ft 220 kts
2026-04-17 22:17 50.04736 20.07115 5341 ft 208 kts
2026-04-17 22:18 50.06137 20.07499 5036 ft 201 kts
2026-04-17 22:18 50.07514 20.07875 4727 ft 201 kts
2026-04-17 22:18 50.08900 20.08164 4389 ft 201 kts 358°
2026-04-17 22:18 50.10198 20.07494 4124 ft 197 kts 326°
2026-04-17 22:19 50.11005 20.05855 3943 ft 190 kts 292°
2026-04-17 22:19 50.11167 20.03853 3774 ft 189 kts 271°
2026-04-17 22:19 50.11028 20.01818 3593 ft 190 kts 262°
2026-04-17 22:19 50.10761 19.99833 3372 ft 185 kts 260°
2026-04-17 22:20 50.10481 19.97900 3144 ft 181 kts 260°
2026-04-17 22:20 50.10212 19.95998 2913 ft 178 kts 260°
2026-04-17 22:20 50.09963 19.94227 2705 ft 160 kts 260°
2026-04-17 22:20 50.09737 19.92606 2521 ft 144 kts 260°
2026-04-17 22:21 50.09533 19.91129 2333 ft 140 kts 260°
2026-04-17 22:21 50.09328 19.89655 2129 ft 139 kts 260°
2026-04-17 22:21 50.09124 19.88186 1920 ft 138 kts 260°
2026-04-17 22:21 50.08933 19.86729 1725 ft 137 kts 261°
2026-04-17 22:22 50.08749 19.85274 1571 ft 136 kts 259°
2026-04-17 22:22 50.08532 19.83840 1430 ft 135 kts 258°
2026-04-17 22:22 50.08328 19.82411 1257 ft 134 kts 258°
2026-04-17 22:22 50.08127 19.80999 1036 ft 134 kts 259°
2026-04-17 22:23 50.07923 19.79585 826 ft 133 kts 257°
2026-04-17 22:23 50.07749 19.78303 793 ft 95 kts 258°
2026-04-17 22:23 50.07681 19.77784 791 ft 15 kts 263°
2026-04-17 22:23 50.07661 19.77704 792 ft 3 kts 197°
2026-04-17 22:24 50.07643 19.77685 792 ft 6 kts 232°
2026-04-17 22:24 50.07629 19.77554 793 ft 19 kts 266°
2026-04-17 22:24 50.07614 19.77323 795 ft 23 kts 257°
2026-04-17 22:24 50.07577 19.77068 798 ft 26 kts 257°
2026-04-17 22:25 50.07520 19.76860 799 ft 17 kts 201°
2026-04-17 22:25 50.07408 19.76874 794 ft 14 kts 167°
2026-04-17 22:25 50.07309 19.76927 793 ft 10 kts 124°
2026-04-17 22:25 50.07311 19.77011 793 ft 10 kts 77°
2026-04-17 22:26 50.07335 19.77167 793 ft 18 kts 77°
2026-04-17 22:26 50.07366 19.77388 793 ft 24 kts 77°
2026-04-17 22:26 50.07404 19.77658 793 ft 27 kts 78°
2026-04-17 22:26 50.07445 19.77954 793 ft 28 kts 77°
2026-04-17 22:27 50.07490 19.78277 793 ft 33 kts 78°
2026-04-17 22:27 50.07542 19.78644 793 ft 37 kts 77°
2026-04-17 22:27 50.07587 19.78972 793 ft 26 kts 78°
2026-04-17 22:27 50.07628 19.79267 793 ft 30 kts 78°
2026-04-17 22:28 50.07665 19.79528 793 ft 17 kts 77°
2026-04-17 22:28 50.07673 19.79679 793 ft 10 kts 120°
2026-04-17 22:28 50.07662 19.79697 793 ft 1 kts 151°
2026-04-17 22:28 50.07640 19.79703 793 ft 7 kts 172°
2026-04-17 22:29 50.07564 19.79733 793 ft 8 kts 167°
2026-04-17 22:29 50.07543 19.79730 793 ft 0 kts 202°
2026-04-17 22:29 50.07538 19.79724 793 ft 0 kts 227°
2026-04-17 22:29 50.07535 19.79707 793 ft 3 kts 258°
2026-04-17 22:30 50.07529 19.79661 793 ft 2 kts 258°
2026-04-17 22:30 50.07529 19.79658 793 ft 0 kts 258°